Time,TemperatureF,DewpointF,PressureIn,WindDirection,WindDirectionDegrees,WindSpeedMPH,WindSpeedGustMPH,Humidity,HourlyPrecipIn,Conditions,Clouds,dailyrainin,SoftwareType,DateUTC
2013-11-19 00:01:00,34.1,24.4,30.06,WNW,302,9.0,10.0,67,0.00,,,0.00,WUHU216DAVISVP2,2013-11-19 05:01:00,
2013-11-19 00:06:00,34.1,24.4,30.06,WNW,288,4.0,11.0,67,0.00,,,0.00,WUHU216DAVISVP2,2013-11-19 05:06:00,
2013-11-19 00:11:00,34.1,24.4,30.06,WNW,285,4.0,11.0,67,0.00,,,0.00,WUHU216DAVISVP2,2013-11-19 05:11:00,
2013-11-19 00:16:00,34.1,24.4,30.06,NW,307,3.0,11.0,67,0.00,,,0.00,WUHU216DAVISVP2,2013-11-19 05:16:00,
2013-11-19 00:21:00,34.1,24.7,30.07,WNW,302,4.0,10.0,68,0.00,,,0.00,WUHU216DAVISVP2,2013-11-19 05:21:00,
2013-11-19 00:26:00,34.1,24.4,30.07,WNW,282,5.0,12.0,67,0.00,,,0.00,WUHU216DAVISVP2,2013-11-19 05:26:00,
2013-11-19 00:31:00,34.2,24.5,30.07,West,271,6.0,12.0,67,0.00,,,0.00,WUHU216DAVISVP2,2013-11-19 05:31:00,
2013-11-19 00:36:00,34.2,24.5,30.07,WNW,293,5.0,12.0,67,0.00,,,0.00,WUHU216DAVISVP2,2013-11-19 05:36:00,
2013-11-19 00:41:00,34.1,24.4,30.07,WNW,301,7.0,12.0,67,0.00,,,0.00,WUHU216DAVISVP2,2013-11-19 05:41:00,
2013-11-19 00:46:00,34.1,24.4,30.07,WNW,286,6.0,12.0,67,0.00,,,0.00,WUHU216DAVISVP2,2013-11-19 05:46:00,
2013-11-19 00:51:00,34.1,24.4,30.07,WNW,289,3.0,12.0,67,0.00,,,0.00,WUHU216DAVISVP2,2013-11-19 05:51:00,
2013-11-19 00:56:00,34.1,24.7,30.07,WNW,300,3.0,12.0,68,0.00,,,0.00,WUHU216DAVISVP2,2013-11-19 05:56:00,
2013-11-19 01:01:00,34.1,24.7,30.07,WNW,296,6.0,12.0,68,0.00,,,0.00,WUHU216DAVISVP2,2013-11-19 06:01:00,
2013-11-19 01:06:00,34.1,24.7,30.08,NW,305,7.0,11.0,68,0.00,,,0.00,WUHU216DAVISVP2,2013-11-19 06:06:00,
2013-11-19 01:11:00,34.1,24.7,30.07,WNW,291,3.0,12.0,68,0.00,,,0.00,WUHU216DAVISVP2,2013-11-19 06:11:00,
2013-11-19 01:16:00,34.1,24.7,30.08,WNW,291,5.0,12.0,68,0.00,,,0.00,WUHU216DAVISVP2,2013-11-19 06:16:00,
2013-11-19 01:21:00,34.1,24.7,30.08,NW,308,2.0,12.0,68,0.00,,,0.00,WUHU216DAVISVP2,2013-11-19 06:21:00,
2013-11-19 01:26:00,34.0,25.0,30.08,West,270,2.0,12.0,69,0.00,,,0.00,WUHU216DAVISVP2,2013-11-19 06:26:00,
2013-11-19 01:31:00,34.0,25.0,30.08,WNW,283,6.0,10.0,69,0.00,,,0.00,WUHU216DAVISVP2,2013-11-19 06:31:00,
2013-11-19 01:36:00,34.0,25.0,30.08,West,277,3.0,9.0,69,0.00,,,0.00,WUHU216DAVISVP2,2013-11-19 06:36:00,
2013-11-19 01:41:00,34.0,25.0,30.09,WNW,301,6.0,10.0,69,0.00,,,0.00,WUHU216DAVISVP2,2013-11-19 06:41:00,
2013-11-19 01:46:00,34.0,25.0,30.09,WNW,302,4.0,11.0,69,0.00,,,0.00,WUHU216DAVISVP2,2013-11-19 06:46:00,
2013-11-19 01:51:00,34.0,25.0,30.09,NW,319,6.0,11.0,69,0.00,,,0.00,WUHU216DAVISVP2,2013-11-19 06:51:00,
2013-11-19 01:56:00,34.0,24.6,30.09,WNW,298,11.0,16.0,68,0.00,,,0.00,WUHU216DAVISVP2,2013-11-19 06:56:00,
2013-11-19 02:01:00,34.0,25.0,30.10,NW,314,8.0,16.0,69,0.00,,,0.00,WUHU216DAVISVP2,2013-11-19 07:01:00,
2013-11-19 02:06:00,34.0,25.0,30.10,WNW,285,3.0,16.0,69,0.00,,,0.00,WUHU216DAVISVP2,2013-11-19 07:06:00,
2013-11-19 02:11:00,34.0,25.3,30.10,WNW,285,2.0,16.0,70,0.00,,,0.00,WUHU216DAVISVP2,2013-11-19 07:11:00,
2013-11-19 02:16:00,34.0,24.9,30.10,West,279,6.0,10.0,69,0.00,,,0.00,WUHU216DAVISVP2,2013-11-19 07:16:00,
2013-11-19 02:21:00,34.0,24.5,30.11,West,262,4.0,13.0,68,0.00,,,0.00,WUHU216DAVISVP2,2013-11-19 07:21:00,
2013-11-19 02:26:00,33.9,24.9,30.11,WNW,287,2.0,13.0,69,0.00,,,0.00,WUHU216DAVISVP2,2013-11-19 07:26:00,
2013-11-19 02:31:00,34.0,25.0,30.11,WNW,283,5.0,13.0,69,0.00,,,0.00,WUHU216DAVISVP2,2013-11-19 07:31:00,
2013-11-19 02:36:00,34.0,25.0,30.11,WNW,293,3.0,13.0,69,0.00,,,0.00,WUHU216DAVISVP2,2013-11-19 07:36:00,
2013-11-19 02:41:00,33.9,24.9,30.11,WNW,290,3.0,8.0,69,0.00,,,0.00,WUHU216DAVISVP2,2013-11-19 07:41:00,
2013-11-19 02:46:00,33.9,24.9,30.11,WNW,300,2.0,10.0,69,0.00,,,0.00,WUHU216DAVISVP2,2013-11-19 07:46:00,
2013-11-19 02:51:00,33.9,25.2,30.11,WNW,301,2.0,10.0,70,0.00,,,0.00,WUHU216DAVISVP2,2013-11-19 07:51:00,
2013-11-19 02:56:00,33.9,24.9,30.11,West,277,2.0,10.0,69,0.00,,,0.00,WUHU216DAVISVP2,2013-11-19 07:56:00,
2013-11-19 03:01:00,33.9,24.9,30.12,WNW,302,2.0,7.0,69,0.00,,,0.00,WUHU216DAVISVP2,2013-11-19 08:01:00,
2013-11-19 03:06:00,33.9,24.9,30.12,WNW,293,2.0,7.0,69,0.00,,,0.00,WUHU216DAVISVP2,2013-11-19 08:06:00,
2013-11-19 03:11:00,33.9,24.9,30.12,WNW,294,4.0,7.0,69,0.00,,,0.00,WUHU216DAVISVP2,2013-11-19 08:11:00,
2013-11-19 03:16:00,33.9,24.9,30.12,WNW,283,5.0,8.0,69,0.00,,,0.00,WUHU216DAVISVP2,2013-11-19 08:16:00,
2013-11-19 03:21:00,33.9,24.9,30.12,WNW,282,4.0,13.0,69,0.00,,,0.00,WUHU216DAVISVP2,2013-11-19 08:21:00,
2013-11-19 03:26:00,33.9,24.8,30.12,WNW,301,4.0,13.0,69,0.00,,,0.00,WUHU216DAVISVP2,2013-11-19 08:26:00,
2013-11-19 03:31:00,33.9,24.2,30.12,WNW,295,12.0,13.0,67,0.00,,,0.00,WUHU216DAVISVP2,2013-11-19 08:31:00,
2013-11-19 03:36:00,33.9,24.2,30.13,NW,308,6.0,13.0,67,0.00,,,0.00,WUHU216DAVISVP2,2013-11-19 08:36:00,
2013-11-19 03:41:00,33.8,24.1,30.13,WNW,288,3.0,12.0,67,0.00,,,0.00,WUHU216DAVISVP2,2013-11-19 08:41:00,
2013-11-19 03:46:00,33.8,23.7,30.13,WNW,300,5.0,16.0,66,0.00,,,0.00,WUHU216DAVISVP2,2013-11-19 08:46:00,
2013-11-19 03:51:00,33.7,23.6,30.13,WNW,296,3.0,16.0,66,0.00,,,0.00,WUHU216DAVISVP2,2013-11-19 08:51:00,
2013-11-19 03:56:00,33.7,24.0,30.13,WNW,293,2.0,16.0,67,0.00,,,0.00,WUHU216DAVISVP2,2013-11-19 08:56:00,
2013-11-19 04:01:00,33.7,24.0,30.13,NNW,329,2.0,12.0,67,0.00,,,0.00,WUHU216DAVISVP2,2013-11-19 09:01:00,
2013-11-19 04:06:00,33.6,24.2,30.13,NW,316,1.0,12.0,68,0.00,,,0.00,WUHU216DAVISVP2,2013-11-19 09:06:00,
2013-11-19 04:11:00,33.5,24.5,30.13,WNW,293,1.0,12.0,69,0.00,,,0.00,WUHU216DAVISVP2,2013-11-19 09:11:00,
2013-11-19 04:16:00,33.5,24.5,30.13,WNW,293,2.0,7.0,69,0.00,,,0.00,WUHU216DAVISVP2,2013-11-19 09:16:00,
2013-11-19 04:21:00,33.5,24.8,30.14,WNW,293,4.0,7.0,70,0.00,,,0.00,WUHU216DAVISVP2,2013-11-19 09:21:00,
2013-11-19 04:26:00,33.5,24.5,30.14,WNW,302,2.0,7.0,69,0.00,,,0.00,WUHU216DAVISVP2,2013-11-19 09:26:00,
2013-11-19 04:31:00,33.5,24.8,30.15,North,5,2.0,7.0,70,0.00,,,0.00,WUHU216DAVISVP2,2013-11-19 09:31:00,
2013-11-19 04:36:00,33.4,24.7,30.15,WNW,289,7.0,8.0,70,0.00,,,0.00,WUHU216DAVISVP2,2013-11-19 09:36:00,
2013-11-19 04:41:00,33.4,24.4,30.15,West,277,4.0,12.0,69,0.00,,,0.00,WUHU216DAVISVP2,2013-11-19 09:41:00,
2013-11-19 04:46:00,33.4,24.4,30.15,NW,308,3.0,12.0,69,0.00,,,0.00,WUHU216DAVISVP2,2013-11-19 09:46:00,
2013-11-19 04:51:00,33.4,24.0,30.16,NW,314,1.0,12.0,68,0.00,,,0.00,WUHU216DAVISVP2,2013-11-19 09:51:00,
2013-11-19 04:56:00,33.4,24.0,30.16,NW,321,3.0,8.0,68,0.00,,,0.00,WUHU216DAVISVP2,2013-11-19 09:56:00,
2013-11-19 05:01:00,33.4,24.0,30.16,NW,325,1.0,8.0,68,0.00,,,0.00,WUHU216DAVISVP2,2013-11-19 10:01:00,
2013-11-19 05:06:00,33.3,23.5,30.16,WNW,293,2.0,10.0,67,0.00,,,0.00,WUHU216DAVISVP2,2013-11-19 10:06:00,
2013-11-19 05:11:00,33.3,23.6,30.16,NW,318,1.0,10.0,67,0.00,,,0.00,WUHU216DAVISVP2,2013-11-19 10:11:00,
2013-11-19 05:16:00,33.2,23.5,30.17,WNW,285,6.0,13.0,67,0.00,,,0.00,WUHU216DAVISVP2,2013-11-19 10:16:00,
2013-11-19 05:21:00,33.1,23.0,30.17,WNW,300,3.0,13.0,66,0.00,,,0.00,WUHU216DAVISVP2,2013-11-19 10:21:00,
2013-11-19 05:26:00,33.1,23.0,30.17,West,278,3.0,13.0,66,0.00,,,0.00,WUHU216DAVISVP2,2013-11-19 10:26:00,
2013-11-19 05:31:00,32.9,22.9,30.17,WNW,293,1.0,13.0,66,0.00,,,0.00,WUHU216DAVISVP2,2013-11-19 10:31:00,
2013-11-19 05:36:00,32.6,22.6,30.18,North,354,2.0,11.0,66,0.00,,,0.00,WUHU216DAVISVP2,2013-11-19 10:36:00,
2013-11-19 05:41:00,32.3,22.3,30.18,NW,315,1.0,11.0,66,0.00,,,0.00,WUHU216DAVISVP2,2013-11-19 10:41:00,
2013-11-19 05:46:00,32.0,22.0,30.18,West,278,3.0,10.0,66,0.00,,,0.00,WUHU216DAVISVP2,2013-11-19 10:46:00,
2013-11-19 05:51:00,31.9,21.8,30.18,WNW,291,5.0,11.0,66,0.00,,,0.00,WUHU216DAVISVP2,2013-11-19 10:51:00,
2013-11-19 05:56:00,31.7,21.7,30.18,NNW,342,4.0,11.0,66,0.00,,,0.00,WUHU216DAVISVP2,2013-11-19 10:56:00,
2013-11-19 06:01:00,31.5,21.9,30.19,WNW,297,2.0,11.0,67,0.00,,,0.00,WUHU216DAVISVP2,2013-11-19 11:01:00,
2013-11-19 06:06:00,31.3,21.3,30.19,WNW,300,3.0,11.0,66,0.00,,,0.00,WUHU216DAVISVP2,2013-11-19 11:06:00,
2013-11-19 06:11:00,31.3,21.6,30.20,WNW,301,4.0,8.0,67,0.00,,,0.00,WUHU216DAVISVP2,2013-11-19 11:11:00,
2013-11-19 06:16:00,31.2,21.6,30.20,WNW,302,3.0,8.0,67,0.00,,,0.00,WUHU216DAVISVP2,2013-11-19 11:16:00,
2013-11-19 06:21:00,31.1,21.5,30.20,NNW,331,2.0,8.0,67,0.00,,,0.00,WUHU216DAVISVP2,2013-11-19 11:21:00,
2013-11-19 06:26:00,31.0,21.4,30.20,WNW,291,4.0,6.0,67,0.00,,,0.00,WUHU216DAVISVP2,2013-11-19 11:26:00,
2013-11-19 06:31:00,30.9,21.6,30.20,WNW,285,2.0,6.0,68,0.00,,,0.00,WUHU216DAVISVP2,2013-11-19 11:31:00,
2013-11-19 06:36:00,30.8,21.5,30.21,WNW,300,2.0,5.0,68,0.00,,,0.00,WUHU216DAVISVP2,2013-11-19 11:36:00,
2013-11-19 06:41:00,30.7,21.5,30.21,WNW,295,3.0,7.0,68,0.00,,,0.00,WUHU216DAVISVP2,2013-11-19 11:41:00,
2013-11-19 06:46:00,30.7,21.5,30.21,WNW,296,3.0,7.0,68,0.00,,,0.00,WUHU216DAVISVP2,2013-11-19 11:46:00,
2013-11-19 06:51:00,30.7,21.5,30.22,West,274,3.0,7.0,68,0.00,,,0.00,WUHU216DAVISVP2,2013-11-19 11:51:00,
2013-11-19 06:56:00,30.6,21.4,30.22,NW,308,1.0,7.0,68,0.00,,,0.00,WUHU216DAVISVP2,2013-11-19 11:56:00,
2013-11-19 07:01:00,30.6,21.7,30.22,WNW,298,3.0,7.0,69,0.00,,,0.00,WUHU216DAVISVP2,2013-11-19 12:01:00,
2013-11-19 07:06:00,30.5,21.6,30.22,NW,310,2.0,6.0,69,0.00,,,0.00,WUHU216DAVISVP2,2013-11-19 12:06:00,
2013-11-19 07:11:00,30.4,21.5,30.23,WNW,293,2.0,7.0,69,0.00,,,0.00,WUHU216DAVISVP2,2013-11-19 12:11:00,
2013-11-19 07:16:00,30.4,21.5,30.23,West,281,1.0,7.0,69,0.00,,,0.00,WUHU216DAVISVP2,2013-11-19 12:16:00,
2013-11-19 07:21:00,30.4,21.5,30.24,West,276,1.0,7.0,69,0.00,,,0.00,WUHU216DAVISVP2,2013-11-19 12:21:00,
2013-11-19 07:26:00,30.3,21.4,30.24,NW,308,4.0,7.0,69,0.00,,,0.00,WUHU216DAVISVP2,2013-11-19 12:26:00,
2013-11-19 07:31:00,30.3,21.4,30.24,WNW,298,3.0,5.0,69,0.00,,,0.00,WUHU216DAVISVP2,2013-11-19 12:31:00,
2013-11-19 07:36:00,30.3,21.7,30.24,West,270,3.0,5.0,70,0.00,,,0.00,WUHU216DAVISVP2,2013-11-19 12:36:00,
2013-11-19 07:41:00,30.2,21.7,30.24,WNW,296,2.0,5.0,70,0.00,,,0.00,WUHU216DAVISVP2,2013-11-19 12:41:00,
2013-11-19 07:46:00,30.2,21.7,30.24,NW,309,2.0,5.0,70,0.00,,,0.00,WUHU216DAVISVP2,2013-11-19 12:46:00,
2013-11-19 07:51:00,30.1,21.9,30.24,WNW,285,1.0,5.0,71,0.00,,,0.00,WUHU216DAVISVP2,2013-11-19 12:51:00,
2013-11-19 07:56:00,30.1,21.9,30.25,NW,307,2.0,5.0,71,0.00,,,0.00,WUHU216DAVISVP2,2013-11-19 12:56:00,
2013-11-19 08:01:00,30.1,21.9,30.25,WNW,293,2.0,5.0,71,0.00,,,0.00,WUHU216DAVISVP2,2013-11-19 13:01:00,
2013-11-19 08:06:00,30.2,22.0,30.25,WNW,290,1.0,5.0,71,0.00,,,0.00,WUHU216DAVISVP2,2013-11-19 13:06:00,
2013-11-19 08:11:00,30.3,22.1,30.25,WNW,300,1.0,5.0,71,0.00,,,0.00,WUHU216DAVISVP2,2013-11-19 13:11:00,
2013-11-19 08:16:00,30.4,22.2,30.25,North,351,1.0,5.0,71,0.00,,,0.00,WUHU216DAVISVP2,2013-11-19 13:16:00,
2013-11-19 08:22:00,30.3,22.1,30.26,WNW,290,1.0,5.0,71,0.00,,,0.00,WUHU216DAVISVP2,2013-11-19 13:22:00,
2013-11-19 08:27:00,30.4,22.5,30.26,NW,319,1.0,4.0,72,0.00,,,0.00,WUHU216DAVISVP2,2013-11-19 13:27:00,
2013-11-19 08:32:00,30.5,22.6,30.26,WNW,300,1.0,5.0,72,0.00,,,0.00,WUHU216DAVISVP2,2013-11-19 13:32:00,
2013-11-19 08:36:00,30.5,22.3,30.26,NW,323,1.0,5.0,71,0.00,,,0.00,WUHU216DAVISVP2,2013-11-19 13:36:00,
2013-11-19 08:42:00,30.5,22.3,30.26,WNW,283,2.0,5.0,71,0.00,,,0.00,WUHU216DAVISVP2,2013-11-19 13:42:00,
2013-11-19 08:46:00,30.6,22.4,30.26,North,6,3.0,5.0,71,0.00,,,0.00,WUHU216DAVISVP2,2013-11-19 13:46:00,
2013-11-19 08:52:00,30.8,22.6,30.27,NNW,338,2.0,5.0,71,0.00,,,0.00,WUHU216DAVISVP2,2013-11-19 13:52:00,
2013-11-19 08:57:00,31.1,22.5,30.27,WNW,296,5.0,6.0,70,0.00,,,0.00,WUHU216DAVISVP2,2013-11-19 13:57:00,
2013-11-19 09:01:00,31.4,22.8,30.27,NW,312,1.0,6.0,70,0.00,,,0.00,WUHU216DAVISVP2,2013-11-19 14:01:00,
2013-11-19 09:06:00,31.6,22.7,30.27,WNW,296,1.0,7.0,69,0.00,,,0.00,WUHU216DAVISVP2,2013-11-19 14:06:00,
2013-11-19 09:11:00,31.8,22.9,30.27,NNW,347,5.0,7.0,69,0.00,,,0.00,WUHU216DAVISVP2,2013-11-19 14:11:00,
2013-11-19 09:16:00,32.1,22.8,30.27,WNW,294,3.0,6.0,68,0.00,,,0.00,WUHU216DAVISVP2,2013-11-19 14:16:00,
2013-11-19 09:21:00,32.3,23.0,30.28,NNW,338,3.0,8.0,68,0.00,,,0.00,WUHU216DAVISVP2,2013-11-19 14:21:00,
2013-11-19 09:26:00,32.4,22.7,30.28,North,349,3.0,10.0,67,0.00,,,0.00,WUHU216DAVISVP2,2013-11-19 14:26:00,
2013-11-19 09:28:00,32.5,22.8,30.28,NNW,329,3.0,10.0,67,0.00,,,0.00,WUHU216DAVISVP2,2013-11-19 14:28:00,
2013-11-19 09:33:00,32.8,22.8,30.28,WNW,303,1.0,10.0,66,0.00,,,0.00,WUHU216DAVISVP2,2013-11-19 14:33:00,
2013-11-19 09:38:00,33.0,22.5,30.28,WNW,293,3.0,9.0,65,0.00,,,0.00,WUHU216DAVISVP2,2013-11-19 14:38:00,
2013-11-19 09:43:00,32.9,22.5,30.28,North,349,4.0,8.0,65,0.00,,,0.00,WUHU216DAVISVP2,2013-11-19 14:43:00,
2013-11-19 09:48:00,32.8,22.0,30.29,NW,324,3.0,9.0,64,0.00,,,0.00,WUHU216DAVISVP2,2013-11-19 14:48:00,
2013-11-19 09:53:00,32.9,22.5,30.29,North,10,4.0,10.0,65,0.00,,,0.00,WUHU216DAVISVP2,2013-11-19 14:53:00,
2013-11-19 09:58:00,33.2,22.0,30.29,North,356,4.0,10.0,63,0.00,,,0.00,WUHU216DAVISVP2,2013-11-19 14:58:00,
2013-11-19 10:03:00,33.4,22.1,30.29,WNW,300,2.0,9.0,63,0.00,,,0.00,WUHU216DAVISVP2,2013-11-19 15:03:00,
2013-11-19 10:08:00,33.5,21.9,30.29,NNW,335,2.0,10.0,62,0.00,,,0.00,WUHU216DAVISVP2,2013-11-19 15:08:00,
2013-11-19 10:13:00,33.7,22.5,30.29,NE,37,5.0,10.0,63,0.00,,,0.00,WUHU216DAVISVP2,2013-11-19 15:13:00,
2013-11-19 10:18:00,33.7,22.1,30.29,NW,307,2.0,10.0,62,0.00,,,0.00,WUHU216DAVISVP2,2013-11-19 15:18:00,
2013-11-19 10:23:00,33.9,22.3,30.30,WNW,301,5.0,9.0,62,0.00,,,0.00,WUHU216DAVISVP2,2013-11-19 15:23:00,
2013-11-19 10:28:00,33.8,22.6,30.30,WNW,296,1.0,9.0,63,0.00,,,0.00,WUHU216DAVISVP2,2013-11-19 15:28:00,
2013-11-19 10:33:00,33.9,22.3,30.30,North,350,1.0,8.0,62,0.00,,,0.00,WUHU216DAVISVP2,2013-11-19 15:33:00,
2013-11-19 10:38:00,34.0,22.0,30.30,NNW,338,3.0,8.0,61,0.00,,,0.00,WUHU216DAVISVP2,2013-11-19 15:38:00,
2013-11-19 10:43:00,34.1,22.4,30.30,North,360,4.0,9.0,62,0.00,,,0.00,WUHU216DAVISVP2,2013-11-19 15:43:00,
2013-11-19 10:48:00,34.3,22.2,30.30,WSW,251,3.0,9.0,61,0.00,,,0.00,WUHU216DAVISVP2,2013-11-19 15:48:00,
2013-11-19 10:53:00,34.4,22.8,30.30,NE,45,3.0,9.0,62,0.00,,,0.00,WUHU216DAVISVP2,2013-11-19 15:53:00,
2013-11-19 10:58:00,34.6,22.6,30.30,NNW,343,4.0,9.0,61,0.00,,,0.00,WUHU216DAVISVP2,2013-11-19 15:58:00,
2013-11-19 11:03:00,34.9,22.9,30.30,North,6,5.0,9.0,61,0.00,,,0.00,WUHU216DAVISVP2,2013-11-19 16:03:00,
2013-11-19 11:08:00,34.9,22.1,30.30,North,8,0.0,9.0,59,0.00,,,0.00,WUHU216DAVISVP2,2013-11-19 16:08:00,
2013-11-19 11:13:00,35.0,22.2,30.30,NE,34,3.0,8.0,59,0.00,,,0.00,WUHU216DAVISVP2,2013-11-19 16:13:00,
2013-11-19 11:18:00,35.1,22.7,30.30,WNW,284,3.0,8.0,60,0.00,,,0.00,WUHU216DAVISVP2,2013-11-19 16:18:00,
2013-11-19 11:23:00,35.1,22.2,30.30,WNW,284,1.0,6.0,59,0.00,,,0.00,WUHU216DAVISVP2,2013-11-19 16:23:00,
2013-11-19 11:28:00,35.3,22.4,30.30,NW,314,4.0,11.0,59,0.00,,,0.00,WUHU216DAVISVP2,2013-11-19 16:28:00,
2013-11-19 11:33:00,35.3,22.8,30.30,WNW,303,1.0,11.0,60,0.00,,,0.00,WUHU216DAVISVP2,2013-11-19 16:33:00,
2013-11-19 11:38:00,35.5,23.0,30.30,NE,41,1.0,11.0,60,0.00,,,0.00,WUHU216DAVISVP2,2013-11-19 16:38:00,
2013-11-19 11:43:00,35.6,23.1,30.29,WNW,295,1.0,9.0,60,0.00,,,0.00,WUHU216DAVISVP2,2013-11-19 16:43:00,
2013-11-19 11:48:00,36.0,23.5,30.29,WNW,298,2.0,6.0,60,0.00,,,0.00,WUHU216DAVISVP2,2013-11-19 16:48:00,
2013-11-19 11:53:00,35.9,22.2,30.29,West,277,1.0,5.0,57,0.00,,,0.00,WUHU216DAVISVP2,2013-11-19 16:53:00,
2013-11-19 11:58:00,36.1,23.2,30.29,NNW,335,5.0,6.0,59,0.00,,,0.00,WUHU216DAVISVP2,2013-11-19 16:58:00,
2013-11-19 12:03:00,36.4,22.6,30.29,West,274,2.0,7.0,57,0.00,,,0.00,WUHU216DAVISVP2,2013-11-19 17:03:00,
2013-11-19 12:08:00,36.3,23.0,30.29,WNW,287,2.0,7.0,58,0.00,,,0.00,WUHU216DAVISVP2,2013-11-19 17:08:00,
2013-11-19 12:13:00,36.7,22.9,30.29,NNE,32,2.0,7.0,57,0.00,,,0.00,WUHU216DAVISVP2,2013-11-19 17:13:00,
2013-11-19 12:18:00,36.9,23.1,30.29,WNW,303,1.0,7.0,57,0.00,,,0.00,WUHU216DAVISVP2,2013-11-19 17:18:00,
2013-11-19 12:23:00,37.1,23.3,30.29,NNW,344,2.0,6.0,57,0.00,,,0.00,WUHU216DAVISVP2,2013-11-19 17:23:00,
2013-11-19 12:28:00,37.2,22.5,30.29,WNW,288,3.0,8.0,55,0.00,,,0.00,WUHU216DAVISVP2,2013-11-19 17:28:00,
2013-11-19 12:33:00,37.1,22.4,30.29,NNE,31,2.0,8.0,55,0.00,,,0.00,WUHU216DAVISVP2,2013-11-19 17:33:00,
2013-11-19 12:35:00,37.2,23.0,30.29,NW,307,2.0,7.0,56,0.00,,,0.00,WUHU216DAVISVP2,2013-11-19 17:35:00,
2013-11-19 12:40:00,37.4,23.1,30.29,NNW,328,2.0,7.0,56,0.00,,,0.00,WUHU216DAVISVP2,2013-11-19 17:40:00,
2013-11-19 12:45:00,37.6,22.9,30.29,NW,326,1.0,6.0,55,0.00,,,0.00,WUHU216DAVISVP2,2013-11-19 17:45:00,
2013-11-19 12:50:00,37.6,22.9,30.28,NNW,335,1.0,5.0,55,0.00,,,0.00,WUHU216DAVISVP2,2013-11-19 17:50:00,
2013-11-19 12:55:00,38.0,22.8,30.29,North,11,3.0,10.0,54,0.00,,,0.00,WUHU216DAVISVP2,2013-11-19 17:55:00,
2013-11-19 13:00:00,38.0,22.4,30.28,NNW,347,0.0,10.0,53,0.00,,,0.00,WUHU216DAVISVP2,2013-11-19 18:00:00,
2013-11-19 13:05:00,38.1,22.5,30.28,WNW,297,1.0,9.0,53,0.00,,,0.00,WUHU216DAVISVP2,2013-11-19 18:05:00,
2013-11-19 13:10:00,38.2,23.0,30.28,NNW,341,3.0,9.0,54,0.00,,,0.00,WUHU216DAVISVP2,2013-11-19 18:10:00,
2013-11-19 13:15:00,38.4,23.2,30.28,North,356,1.0,6.0,54,0.00,,,0.00,WUHU216DAVISVP2,2013-11-19 18:15:00,
2013-11-19 13:20:00,38.7,22.6,30.28,NNE,27,2.0,7.0,52,0.00,,,0.00,WUHU216DAVISVP2,2013-11-19 18:20:00,
2013-11-19 13:25:00,38.7,23.5,30.28,WNW,283,1.0,7.0,54,0.00,,,0.00,WUHU216DAVISVP2,2013-11-19 18:25:00,
2013-11-19 13:30:00,38.8,23.1,30.28,NW,309,2.0,6.0,53,0.00,,,0.00,WUHU216DAVISVP2,2013-11-19 18:30:00,
2013-11-19 13:35:00,38.8,22.2,30.28,WNW,295,1.0,6.0,51,0.00,,,0.00,WUHU216DAVISVP2,2013-11-19 18:35:00,
2013-11-19 13:40:00,39.1,22.9,30.28,North,6,3.0,6.0,52,0.00,,,0.00,WUHU216DAVISVP2,2013-11-19 18:40:00,
2013-11-19 13:45:00,39.2,23.0,30.28,West,275,1.0,6.0,52,0.00,,,0.00,WUHU216DAVISVP2,2013-11-19 18:45:00,
2013-11-19 13:50:00,39.3,22.6,30.28,NW,326,1.0,5.0,51,0.00,,,0.00,WUHU216DAVISVP2,2013-11-19 18:50:00,
2013-11-19 13:55:00,39.2,22.5,30.28,NNE,20,3.0,6.0,51,0.00,,,0.00,WUHU216DAVISVP2,2013-11-19 18:55:00,
2013-11-19 14:00:00,39.2,23.0,30.27,NW,326,0.0,6.0,52,0.00,,,0.00,WUHU216DAVISVP2,2013-11-19 19:00:00,
2013-11-19 14:05:00,39.5,22.3,30.27,North,8,1.0,6.0,50,0.00,,,0.00,WUHU216DAVISVP2,2013-11-19 19:05:00,
2013-11-19 14:10:00,39.4,22.7,30.27,East,80,1.0,6.0,51,0.00,,,0.00,WUHU216DAVISVP2,2013-11-19 19:10:00,
2013-11-19 14:15:00,39.6,22.9,30.27,NNE,18,1.0,5.0,51,0.00,,,0.00,WUHU216DAVISVP2,2013-11-19 19:15:00,
2013-11-19 14:20:00,39.8,22.6,30.27,East,97,1.0,5.0,50,0.00,,,0.00,WUHU216DAVISVP2,2013-11-19 19:20:00,
2013-11-19 14:25:00,39.9,22.7,30.27,North,353,1.0,4.0,50,0.00,,,0.00,WUHU216DAVISVP2,2013-11-19 19:25:00,
2013-11-19 14:30:00,39.9,22.2,30.27,North,5,1.0,5.0,49,0.00,,,0.00,WUHU216DAVISVP2,2013-11-19 19:30:00,
2013-11-19 14:35:00,39.7,23.0,30.27,WNW,290,1.0,5.0,51,0.00,,,0.00,WUHU216DAVISVP2,2013-11-19 19:35:00,
2013-11-19 14:40:00,40.3,23.1,30.27,WNW,296,3.0,4.0,50,0.00,,,0.00,WUHU216DAVISVP2,2013-11-19 19:40:00,
2013-11-19 14:45:00,39.9,22.7,30.27,NW,306,0.0,5.0,50,0.00,,,0.00,WUHU216DAVISVP2,2013-11-19 19:45:00,
2013-11-19 14:50:00,40.0,22.8,30.27,North,5,4.0,5.0,50,0.00,,,0.00,WUHU216DAVISVP2,2013-11-19 19:50:00,
2013-11-19 14:55:00,39.7,22.1,30.27,NNW,343,1.0,6.0,49,0.00,,,0.00,WUHU216DAVISVP2,2013-11-19 19:55:00,
2013-11-19 15:00:00,39.7,22.5,30.27,NNE,32,3.0,6.0,50,0.00,,,0.00,WUHU216DAVISVP2,2013-11-19 20:00:00,
2013-11-19 15:05:00,39.5,22.8,30.27,NNE,31,2.0,5.0,51,0.00,,,0.00,WUHU216DAVISVP2,2013-11-19 20:05:00,
2013-11-19 15:10:00,39.5,22.3,30.27,North,352,1.0,5.0,50,0.00,,,0.00,WUHU216DAVISVP2,2013-11-19 20:10:00,
2013-11-19 15:15:00,39.8,23.1,30.27,NNE,17,1.0,5.0,51,0.00,,,0.00,WUHU216DAVISVP2,2013-11-19 20:15:00,
2013-11-19 15:20:00,39.7,22.5,30.28,NNW,341,1.0,4.0,50,0.00,,,0.00,WUHU216DAVISVP2,2013-11-19 20:20:00,
2013-11-19 15:25:00,40.1,22.4,30.28,WNW,296,1.0,4.0,49,0.00,,,0.00,WUHU216DAVISVP2,2013-11-19 20:25:00,
2013-11-19 15:30:00,40.4,22.2,30.27,NW,323,1.0,4.0,48,0.00,,,0.00,WUHU216DAVISVP2,2013-11-19 20:30:00,
2013-11-19 15:35:00,40.4,22.7,30.28,NNE,29,2.0,3.0,49,0.00,,,0.00,WUHU216DAVISVP2,2013-11-19 20:35:00,
2013-11-19 15:40:00,40.3,22.6,30.28,NNW,347,2.0,3.0,49,0.00,,,0.00,WUHU216DAVISVP2,2013-11-19 20:40:00,
2013-11-19 15:45:00,39.9,22.2,30.28,North,8,2.0,3.0,49,0.00,,,0.00,WUHU216DAVISVP2,2013-11-19 20:45:00,
2013-11-19 15:50:00,39.5,22.3,30.28,ENE,57,2.0,3.0,50,0.00,,,0.00,WUHU216DAVISVP2,2013-11-19 20:50:00,
2013-11-19 15:55:00,39.6,22.5,30.28,North,8,0.0,3.0,50,0.00,,,0.00,WUHU216DAVISVP2,2013-11-19 20:55:00,
2013-11-19 16:00:00,39.7,22.5,30.28,NNE,18,1.0,3.0,50,0.00,,,0.00,WUHU216DAVISVP2,2013-11-19 21:00:00,
2013-11-19 16:05:00,39.5,22.3,30.29,North,354,1.0,3.0,50,0.00,,,0.00,WUHU216DAVISVP2,2013-11-19 21:05:00,
2013-11-19 16:10:00,39.6,22.4,30.29,NNW,348,0.0,3.0,50,0.00,,,0.00,WUHU216DAVISVP2,2013-11-19 21:10:00,
2013-11-19 16:15:00,40.4,23.2,30.29,NNW,327,0.0,3.0,50,0.00,,,0.00,WUHU216DAVISVP2,2013-11-19 21:15:00,
2013-11-19 16:20:00,40.7,21.9,30.29,ENE,60,0.0,3.0,47,0.00,,,0.00,WUHU216DAVISVP2,2013-11-19 21:20:00,
2013-11-19 16:25:00,40.3,22.1,30.29,ENE,60,1.0,2.0,48,0.00,,,0.00,WUHU216DAVISVP2,2013-11-19 21:25:00,
2013-11-19 16:30:00,39.7,22.0,30.29,East,81,0.0,2.0,49,0.00,,,0.00,WUHU216DAVISVP2,2013-11-19 21:30:00,
2013-11-19 16:35:00,39.4,21.7,30.29,East,89,0.0,2.0,49,0.00,,,0.00,WUHU216DAVISVP2,2013-11-19 21:35:00,
2013-11-19 16:40:00,39.2,22.1,30.29,SE,131,0.0,3.0,50,0.00,,,0.00,WUHU216DAVISVP2,2013-11-19 21:40:00,
2013-11-19 16:45:00,38.9,21.8,30.29,ESE,117,0.0,3.0,50,0.00,,,0.00,WUHU216DAVISVP2,2013-11-19 21:45:00,
2013-11-19 16:50:00,38.4,21.8,30.29,ESE,117,0.0,3.0,51,0.00,,,0.00,WUHU216DAVISVP2,2013-11-19 21:50:00,
2013-11-19 16:55:00,38.1,22.5,30.30,ESE,117,0.0,3.0,53,0.00,,,0.00,WUHU216DAVISVP2,2013-11-19 21:55:00,
2013-11-19 17:00:00,37.6,21.5,30.30,ESE,117,0.0,1.0,52,0.00,,,0.00,WUHU216DAVISVP2,2013-11-19 22:00:00,
2013-11-19 17:05:00,37.5,21.9,30.30,East,86,0.0,2.0,53,0.00,,,0.00,WUHU216DAVISVP2,2013-11-19 22:05:00,
2013-11-19 17:10:00,37.2,22.1,30.30,East,86,0.0,2.0,54,0.00,,,0.00,WUHU216DAVISVP2,2013-11-19 22:10:00,
2013-11-19 17:15:00,36.8,22.1,30.30,East,83,0.0,1.0,55,0.00,,,0.00,WUHU216DAVISVP2,2013-11-19 22:15:00,
2013-11-19 17:20:00,36.5,21.8,30.30,East,84,0.0,1.0,55,0.00,,,0.00,WUHU216DAVISVP2,2013-11-19 22:20:00,
2013-11-19 17:25:00,36.1,22.4,30.31,East,83,0.0,1.0,57,0.00,,,0.00,WUHU216DAVISVP2,2013-11-19 22:25:00,
2013-11-19 17:30:00,35.6,21.9,30.31,East,83,0.0,1.0,57,0.00,,,0.00,WUHU216DAVISVP2,2013-11-19 22:30:00,
2013-11-19 17:35:00,35.2,23.2,30.31,East,83,0.0,0.0,61,0.00,,,0.00,WUHU216DAVISVP2,2013-11-19 22:35:00,
2013-11-19 17:40:00,34.9,24.8,30.31,East,84,0.0,0.0,66,0.00,,,0.00,WUHU216DAVISVP2,2013-11-19 22:40:00,
2013-11-19 17:45:00,34.3,22.3,30.31,East,84,0.0,0.0,61,0.00,,,0.00,WUHU216DAVISVP2,2013-11-19 22:45:00,
2013-11-19 17:50:00,33.8,22.6,30.32,East,84,0.0,0.0,63,0.00,,,0.00,WUHU216DAVISVP2,2013-11-19 22:50:00,
2013-11-19 17:55:00,33.3,22.5,30.32,East,83,0.0,0.0,64,0.00,,,0.00,WUHU216DAVISVP2,2013-11-19 22:55:00,
2013-11-19 18:00:00,33.1,22.7,30.32,East,83,0.0,0.0,65,0.00,,,0.00,WUHU216DAVISVP2,2013-11-19 23:00:00,
2013-11-19 18:05:00,32.9,22.1,30.32,ENE,78,0.0,0.0,64,0.00,,,0.00,WUHU216DAVISVP2,2013-11-19 23:05:00,
2013-11-19 18:10:00,32.9,21.7,30.32,ENE,70,0.0,0.0,63,0.00,,,0.00,WUHU216DAVISVP2,2013-11-19 23:10:00,
2013-11-19 18:15:00,32.7,21.9,30.33,ENE,70,0.0,0.0,64,0.00,,,0.00,WUHU216DAVISVP2,2013-11-19 23:15:00,
2013-11-19 18:20:00,32.4,21.6,30.32,ENE,71,0.0,0.0,64,0.00,,,0.00,WUHU216DAVISVP2,2013-11-19 23:20:00,
2013-11-19 18:25:00,32.4,22.3,30.33,ENE,70,0.0,0.0,66,0.00,,,0.00,WUHU216DAVISVP2,2013-11-19 23:25:00,
2013-11-19 18:30:00,32.1,23.1,30.33,ENE,70,0.0,0.0,69,0.00,,,0.00,WUHU216DAVISVP2,2013-11-19 23:30:00,
2013-11-19 18:35:00,32.1,22.7,30.33,SE,130,1.0,3.0,68,0.00,,,0.00,WUHU216DAVISVP2,2013-11-19 23:35:00,
2013-11-19 18:40:00,32.1,23.1,30.33,ESE,110,0.0,3.0,69,0.00,,,0.00,WUHU216DAVISVP2,2013-11-19 23:40:00,
2013-11-19 18:45:00,31.9,23.3,30.33,ESE,110,0.0,3.0,70,0.00,,,0.00,WUHU216DAVISVP2,2013-11-19 23:45:00,
2013-11-19 18:50:00,31.6,22.9,30.33,ESE,110,0.0,3.0,70,0.00,,,0.00,WUHU216DAVISVP2,2013-11-19 23:50:00,
2013-11-19 18:55:00,31.6,25.2,30.34,ESE,108,0.0,0.0,77,0.00,,,0.00,WUHU216DAVISVP2,2013-11-19 23:55:00,
2013-11-19 19:00:00,31.4,24.1,30.34,ESE,106,0.0,0.0,74,0.00,,,0.00,WUHU216DAVISVP2,2013-11-20 00:00:00,
2013-11-19 19:05:00,31.1,23.8,30.34,ESE,104,0.0,0.0,74,0.00,,,0.00,WUHU216DAVISVP2,2013-11-20 00:05:00,
2013-11-19 19:10:00,30.8,23.5,30.34,ESE,104,0.0,0.0,74,0.00,,,0.00,WUHU216DAVISVP2,2013-11-20 00:10:00,
2013-11-19 19:15:00,31.0,23.7,30.34,ESE,108,0.0,1.0,74,0.00,,,0.00,WUHU216DAVISVP2,2013-11-20 00:15:00,
2013-11-19 19:20:00,31.2,24.2,30.34,ESE,108,0.0,1.0,75,0.00,,,0.00,WUHU216DAVISVP2,2013-11-20 00:20:00,
2013-11-19 19:25:00,31.3,24.0,30.34,ESE,119,0.0,1.0,74,0.00,,,0.00,WUHU216DAVISVP2,2013-11-20 00:25:00,
2013-11-19 19:30:00,31.4,24.4,30.35,ESE,120,0.0,1.0,75,0.00,,,0.00,WUHU216DAVISVP2,2013-11-20 00:30:00,
2013-11-19 19:35:00,31.4,24.1,30.35,ESE,120,1.0,1.0,74,0.00,,,0.00,WUHU216DAVISVP2,2013-11-20 00:35:00,
2013-11-19 19:40:00,31.5,24.2,30.35,ESE,121,0.0,1.0,74,0.00,,,0.00,WUHU216DAVISVP2,2013-11-20 00:40:00,
2013-11-19 19:45:00,31.6,24.3,30.35,SE,136,0.0,1.0,74,0.00,,,0.00,WUHU216DAVISVP2,2013-11-20 00:45:00,
2013-11-19 19:50:00,31.6,24.3,30.35,ESE,120,0.0,1.0,74,0.00,,,0.00,WUHU216DAVISVP2,2013-11-20 00:50:00,
2013-11-19 19:55:00,31.6,24.3,30.35,ESE,121,0.0,1.0,74,0.00,,,0.00,WUHU216DAVISVP2,2013-11-20 00:55:00,
2013-11-19 20:00:00,31.6,24.3,30.35,ESE,121,0.0,1.0,74,0.00,,,0.00,WUHU216DAVISVP2,2013-11-20 01:00:00,
2013-11-19 20:05:00,31.5,24.5,30.35,ESE,120,0.0,1.0,75,0.00,,,0.00,WUHU216DAVISVP2,2013-11-20 01:05:00,
2013-11-19 20:10:00,31.4,24.4,30.35,East,101,0.0,0.0,75,0.00,,,0.00,WUHU216DAVISVP2,2013-11-20 01:10:00,
2013-11-19 20:15:00,31.4,24.4,30.35,ESE,106,0.0,0.0,75,0.00,,,0.00,WUHU216DAVISVP2,2013-11-20 01:15:00,
2013-11-19 20:20:00,31.4,24.7,30.35,ESE,112,0.0,0.0,76,0.00,,,0.00,WUHU216DAVISVP2,2013-11-20 01:20:00,
2013-11-19 20:25:00,31.4,24.7,30.35,SE,143,0.0,0.0,76,0.00,,,0.00,WUHU216DAVISVP2,2013-11-20 01:25:00,
2013-11-19 20:30:00,31.3,24.6,30.35,SE,146,0.0,0.0,76,0.00,,,0.00,WUHU216DAVISVP2,2013-11-20 01:30:00,
2013-11-19 20:35:00,31.2,24.5,30.35,South,188,0.0,2.0,76,0.00,,,0.00,WUHU216DAVISVP2,2013-11-20 01:35:00,
2013-11-19 20:40:00,31.2,24.5,30.35,SSE,153,0.0,2.0,76,0.00,,,0.00,WUHU216DAVISVP2,2013-11-20 01:40:00,
2013-11-19 20:45:00,31.1,24.8,30.35,SSE,153,0.0,2.0,77,0.00,,,0.00,WUHU216DAVISVP2,2013-11-20 01:45:00,
2013-11-19 20:50:00,31.0,24.7,30.35,SE,146,0.0,2.0,77,0.00,,,0.00,WUHU216DAVISVP2,2013-11-20 01:50:00,
2013-11-19 20:55:00,30.8,24.8,30.35,SSE,152,0.0,2.0,78,0.00,,,0.00,WUHU216DAVISVP2,2013-11-20 01:55:00,
2013-11-19 21:00:00,30.7,24.4,30.35,SSE,156,0.0,1.0,77,0.00,,,0.00,WUHU216DAVISVP2,2013-11-20 02:00:00,
2013-11-19 21:05:00,30.7,24.7,30.35,SSE,156,0.0,1.0,78,0.00,,,0.00,WUHU216DAVISVP2,2013-11-20 02:05:00,
2013-11-19 21:10:00,30.7,24.7,30.35,SSE,158,0.0,1.0,78,0.00,,,0.00,WUHU216DAVISVP2,2013-11-20 02:10:00,
2013-11-19 21:15:00,30.6,24.9,30.35,SSE,158,0.0,1.0,79,0.00,,,0.00,WUHU216DAVISVP2,2013-11-20 02:15:00,
2013-11-19 21:20:00,30.4,25.9,30.35,SSE,155,0.0,0.0,83,0.00,,,0.00,WUHU216DAVISVP2,2013-11-20 02:20:00,
2013-11-19 21:25:00,30.0,24.6,30.35,SE,139,0.0,0.0,80,0.00,,,0.00,WUHU216DAVISVP2,2013-11-20 02:25:00,
2013-11-19 21:30:00,29.4,24.0,30.36,ESE,103,0.0,0.0,80,0.00,,,0.00,WUHU216DAVISVP2,2013-11-20 02:30:00,
2013-11-19 21:35:00,29.3,24.2,30.35,East,101,0.0,0.0,81,0.00,,,0.00,WUHU216DAVISVP2,2013-11-20 02:35:00,
2013-11-19 21:40:00,29.3,24.2,30.35,ESE,102,0.0,0.0,81,0.00,,,0.00,WUHU216DAVISVP2,2013-11-20 02:40:00,
2013-11-19 21:45:00,29.2,24.4,30.35,East,101,0.0,0.0,82,0.00,,,0.00,WUHU216DAVISVP2,2013-11-20 02:45:00,
2013-11-19 21:50:00,29.3,24.5,30.35,East,82,0.0,0.0,82,0.00,,,0.00,WUHU216DAVISVP2,2013-11-20 02:50:00,
2013-11-19 21:55:00,29.4,24.6,30.35,ENE,77,0.0,0.0,82,0.00,,,0.00,WUHU216DAVISVP2,2013-11-20 02:55:00,
2013-11-19 22:00:00,29.3,24.2,30.35,ENE,77,0.0,0.0,81,0.00,,,0.00,WUHU216DAVISVP2,2013-11-20 03:00:00,
2013-11-19 22:05:00,29.0,24.2,30.35,ENE,77,0.0,0.0,82,0.00,,,0.00,WUHU216DAVISVP2,2013-11-20 03:05:00,
2013-11-19 22:10:00,28.9,24.1,30.35,ENE,77,0.0,0.0,82,0.00,,,0.00,WUHU216DAVISVP2,2013-11-20 03:10:00,
2013-11-19 22:15:00,28.9,24.1,30.35,ENE,77,0.0,0.0,82,0.00,,,0.00,WUHU216DAVISVP2,2013-11-20 03:15:00,
2013-11-19 22:20:00,28.8,24.3,30.35,ENE,77,0.0,0.0,83,0.00,,,0.00,WUHU216DAVISVP2,2013-11-20 03:20:00,
2013-11-19 22:25:00,28.7,25.0,30.36,ENE,77,0.0,0.0,86,0.00,,,0.00,WUHU216DAVISVP2,2013-11-20 03:25:00,
2013-11-19 22:30:00,28.4,24.2,30.35,ENE,77,0.0,0.0,84,0.00,,,0.00,WUHU216DAVISVP2,2013-11-20 03:30:00,
2013-11-19 22:35:00,28.3,24.1,30.35,ENE,77,0.0,0.0,84,0.00,,,0.00,WUHU216DAVISVP2,2013-11-20 03:35:00,
2013-11-19 22:40:00,28.2,24.3,30.36,East,79,0.0,0.0,85,0.00,,,0.00,WUHU216DAVISVP2,2013-11-20 03:40:00,
2013-11-19 22:45:00,28.1,24.1,30.35,East,79,0.0,0.0,85,0.00,,,0.00,WUHU216DAVISVP2,2013-11-20 03:45:00,
2013-11-19 22:50:00,28.1,24.1,30.36,ESE,117,0.0,0.0,85,0.00,,,0.00,WUHU216DAVISVP2,2013-11-20 03:50:00,
2013-11-19 22:55:00,28.3,24.3,30.35,ESE,113,0.0,0.0,85,0.00,,,0.00,WUHU216DAVISVP2,2013-11-20 03:55:00,
2013-11-19 23:00:00,28.4,24.2,30.35,ESE,115,0.0,0.0,84,0.00,,,0.00,WUHU216DAVISVP2,2013-11-20 04:00:00,
2013-11-19 23:05:00,28.5,24.3,30.35,ESE,107,0.0,1.0,84,0.00,,,0.00,WUHU216DAVISVP2,2013-11-20 04:05:00,
2013-11-19 23:10:00,28.6,24.4,30.35,SE,127,0.0,1.0,84,0.00,,,0.00,WUHU216DAVISVP2,2013-11-20 04:10:00,
2013-11-19 23:15:00,28.5,24.3,30.35,East,91,0.0,1.0,84,0.00,,,0.00,WUHU216DAVISVP2,2013-11-20 04:15:00,
2013-11-19 23:20:00,28.3,24.3,30.35,East,91,0.0,1.0,85,0.00,,,0.00,WUHU216DAVISVP2,2013-11-20 04:20:00,
2013-11-19 23:25:00,28.2,24.0,30.35,East,93,0.0,1.0,84,0.00,,,0.00,WUHU216DAVISVP2,2013-11-20 04:25:00,
2013-11-19 23:30:00,27.8,23.6,30.35,East,93,0.0,1.0,84,0.00,,,0.00,WUHU216DAVISVP2,2013-11-20 04:30:00,
2013-11-19 23:35:00,27.5,23.8,30.35,East,93,0.0,0.0,86,0.00,,,0.00,WUHU216DAVISVP2,2013-11-20 04:35:00,
2013-11-19 23:40:00,27.2,23.5,30.35,East,92,0.0,1.0,86,0.00,,,0.00,WUHU216DAVISVP2,2013-11-20 04:40:00,
2013-11-19 23:45:00,26.7,23.3,30.36,East,91,0.0,1.0,87,0.00,,,0.00,WUHU216DAVISVP2,2013-11-20 04:45:00,
2013-11-19 23:50:00,26.6,23.3,30.36,East,88,0.0,0.0,87,0.00,,,0.00,WUHU216DAVISVP2,2013-11-20 04:50:00,
2013-11-19 23:55:00,26.6,23.5,30.36,East,87,0.0,0.0,88,0.00,,,0.00,WUHU216DAVISVP2,2013-11-20 04:55:00,